,,,PA_Meas_PMT16A,,PR_Meas_QMR101_102,,RH_Meas_QMH101,,SR_Meas_QMS101,,TA_Meas_QMH101,,GenWind,,GenWind,
date,time,status,PA,status,PR,status,RH,status,SR,status,TA,status,DirAvg,status,SpdAvg,
2009-01-19, 00:00:04,VALID,1011.06,VALID,0,VALID,92.5385,VALID,0,VALID,23.5966,VALID,333,VALID,0.287109,
2009-01-19, 00:01:04,VALID,1011.04,VALID,0,VALID,92.5004,VALID,0,VALID,23.5966,VALID,315,VALID,0.361328,
2009-01-19, 00:02:04,VALID,1011.04,VALID,0,VALID,92.4394,VALID,0,VALID,23.5753,VALID,350,VALID,0.490625,
2009-01-19, 00:03:04,VALID,1011.05,VALID,0,VALID,92.4165,VALID,0,VALID,23.6161,VALID,352,VALID,0.328906,
2009-01-19, 00:04:04,VALID,1011.06,VALID,0,VALID,92.447,VALID,0,VALID,23.6161,VALID,352,VALID,0.00195313,
2009-01-19, 00:05:04,VALID,1011.05,VALID,0,VALID,92.4241,VALID,0,VALID,23.6161,VALID,352,VALID,0,
2009-01-19, 00:06:04,VALID,1011.08,VALID,0,VALID,92.4318,VALID,0,VALID,23.5948,VALID,332,VALID,0.279687,
2009-01-19, 00:07:04,VALID,1011.06,VALID,0,VALID,92.4394,VALID,0,VALID,23.6143,VALID,332,VALID,0.0546875,
2009-01-19, 00:08:04,VALID,1011.08,VALID,0,VALID,92.4318,VALID,0.105969,VALID,23.6338,VALID,305,VALID,0.289453,
2009-01-19, 00:09:04,VALID,1011.08,VALID,0,VALID,92.3631,VALID,0,VALID,23.6532,VALID,305,VALID,0.0773437,
2009-01-19, 00:10:04,VALID,1011.03,VALID,0,VALID,92.264,VALID,0,VALID,23.694,VALID,300,VALID,0.437109,
2009-01-19, 00:11:04,VALID,1011.03,VALID,0,VALID,92.0123,VALID,0,VALID,23.7135,VALID,289,VALID,0.614844,
2009-01-19, 00:12:04,VALID,1011.02,VALID,0,VALID,91.8522,VALID,0,VALID,23.7525,VALID,304,VALID,0.43125,
2009-01-19, 00:13:04,VALID,1011,VALID,0,VALID,91.6387,VALID,0,VALID,23.7507,VALID,317,VALID,0.476172,
2009-01-19, 00:14:04,VALID,1010.99,VALID,0,VALID,91.5319,VALID,0,VALID,23.7701,VALID,283,VALID,0.402734,
2009-01-19, 00:15:04,VALID,1011,VALID,0,VALID,91.4557,VALID,0.105969,VALID,23.8091,VALID,277,VALID,0.0554687,
2009-01-19, 00:16:04,VALID,1010.98,VALID,0,VALID,91.4099,VALID,0,VALID,23.8286,VALID,285,VALID,0.21875,
2009-01-19, 00:17:04,VALID,1010.95,VALID,0,VALID,91.4557,VALID,0,VALID,23.8481,VALID,346,VALID,0.140625,
2009-01-19, 00:18:04,VALID,1010.95,VALID,0,VALID,91.4328,VALID,0,VALID,23.8694,VALID,339,VALID,0.235938,
2009-01-19, 00:19:04,VALID,1010.95,VALID,0,VALID,91.4709,VALID,0.105969,VALID,23.8481,VALID,287,VALID,0.228906,
2009-01-19, 00:20:04,VALID,1010.94,VALID,0,VALID,91.4938,VALID,0,VALID,23.8889,VALID,287,VALID,0,
2009-01-19, 00:21:04,VALID,1010.92,VALID,0,VALID,91.4709,VALID,0,VALID,23.8676,VALID,302,VALID,0,
2009-01-19, 00:22:04,VALID,1010.92,VALID,0,VALID,91.5319,VALID,0,VALID,23.8499,VALID,293,VALID,0.289453,
2009-01-19, 00:23:04,VALID,1010.91,VALID,0,VALID,91.6616,VALID,0,VALID,23.8694,VALID,288,VALID,0.201172,
2009-01-19, 00:24:04,VALID,1010.9,VALID,0,VALID,91.4785,VALID,0,VALID,23.8499,VALID,302,VALID,0.745313,
2009-01-19, 00:25:04,VALID,1010.89,VALID,0,VALID,91.2498,VALID,0,VALID,23.8889,VALID,301,VALID,0.238281,
2009-01-19, 00:26:04,VALID,1010.86,VALID,0,VALID,91.2574,VALID,0.105969,VALID,23.8871,VALID,316,VALID,0.33125,
2009-01-19, 00:27:04,VALID,1010.82,VALID,0,VALID,91.2193,VALID,0.105969,VALID,23.8852,VALID,310,VALID,0.561719,
2009-01-19, 00:28:04,VALID,1010.79,VALID,0,VALID,91.1278,VALID,0.105969,VALID,23.9065,VALID,302,VALID,0.184766,
2009-01-19, 00:29:04,VALID,1010.77,VALID,0,VALID,91.0744,VALID,0.105969,VALID,23.926,VALID,296,VALID,0.240625,
2009-01-19, 00:30:04,VALID,1010.76,VALID,0,VALID,90.9219,VALID,0.105969,VALID,23.9047,VALID,313,VALID,0.532812,
2009-01-19, 00:31:04,VALID,1010.76,VALID,0,VALID,90.8685,VALID,0.105969,VALID,23.926,VALID,295,VALID,0.208594,
2009-01-19, 00:32:04,VALID,1010.76,VALID,0,VALID,90.7998,VALID,0.105969,VALID,23.9455,VALID,326,VALID,0.114844,
2009-01-19, 00:33:04,VALID,1010.75,VALID,0,VALID,90.7922,VALID,0.105969,VALID,23.965,VALID,285,VALID,0.479297,
2009-01-19, 00:34:04,VALID,1010.77,VALID,0,VALID,90.9219,VALID,0.105969,VALID,23.965,VALID,324,VALID,0.195703,
2009-01-19, 00:35:04,VALID,1010.75,VALID,0,VALID,90.9752,VALID,0.105969,VALID,23.9437,VALID,313,VALID,0.339063,
2009-01-19, 00:36:04,VALID,1010.72,VALID,0,VALID,91.0591,VALID,0.105969,VALID,23.9437,VALID,352,VALID,0.577344,
2009-01-19, 00:37:04,VALID,1010.69,VALID,0,VALID,91.1506,VALID,0.105969,VALID,23.9455,VALID,343,VALID,0.339453,
2009-01-19, 00:38:04,VALID,1010.64,VALID,0,VALID,91.021,VALID,0.105969,VALID,23.8852,VALID,4,VALID,0.59375,
2009-01-19, 00:39:04,VALID,1010.68,VALID,0,VALID,91.2269,VALID,0.105969,VALID,23.926,VALID,358,VALID,0,
2009-01-19, 00:40:04,VALID,1010.66,VALID,0,VALID,91.1506,VALID,0.105969,VALID,23.8852,VALID,328,VALID,0.648828,
2009-01-19, 00:41:04,VALID,1010.65,VALID,0,VALID,91.1583,VALID,0,VALID,23.8676,VALID,358,VALID,0.248828,
2009-01-19, 00:42:04,VALID,1010.65,VALID,0,VALID,91.204,VALID,0,VALID,23.8676,VALID,352,VALID,0.412109,
2009-01-19, 00:43:04,VALID,1010.66,VALID,0,VALID,91.2421,VALID,0,VALID,23.8694,VALID,347,VALID,0.446875,
2009-01-19, 00:44:04,VALID,1010.68,VALID,0,VALID,91.448,VALID,0,VALID,23.8694,VALID,346,VALID,0.384375,
2009-01-19, 00:45:04,VALID,1010.69,VALID,0,VALID,91.4633,VALID,0,VALID,23.8286,VALID,345,VALID,0.3125,
2009-01-19, 00:46:04,VALID,1010.68,VALID,0,VALID,91.4862,VALID,0,VALID,23.8091,VALID,302,VALID,0.619531,
2009-01-19, 00:47:04,VALID,1010.71,VALID,0,VALID,91.6311,VALID,0.105969,VALID,23.8091,VALID,311,VALID,0.349609,
2009-01-19, 00:48:04,VALID,1010.65,VALID,0,VALID,91.5777,VALID,0,VALID,23.8304,VALID,295,VALID,0.447656,
2009-01-19, 00:49:04,VALID,1010.64,VALID,0,VALID,91.5548,VALID,0,VALID,23.8109,VALID,319,VALID,0.694922,
2009-01-19, 00:50:04,VALID,1010.66,VALID,0,VALID,91.5395,VALID,0,VALID,23.8091,VALID,305,VALID,0.498047,
2009-01-19, 00:51:04,VALID,1010.65,VALID,0,VALID,91.5319,VALID,0,VALID,23.8304,VALID,324,VALID,0.266406,
2009-01-19, 00:52:04,VALID,1010.65,VALID,0,VALID,91.4938,VALID,0,VALID,23.8499,VALID,282,VALID,0.429688,
2009-01-19, 00:53:04,VALID,1010.64,VALID,0,VALID,91.3565,VALID,0,VALID,23.8499,VALID,285,VALID,0.262109,
2009-01-19, 00:54:04,VALID,1010.67,VALID,0,VALID,91.4175,VALID,0,VALID,23.8694,VALID,298,VALID,0.0367187,
2009-01-19, 00:55:04,VALID,1010.65,VALID,0,VALID,91.265,VALID,0,VALID,23.8676,VALID,331,VALID,0.321094,
2009-01-19, 00:56:04,VALID,1010.65,VALID,0,VALID,91.1811,VALID,0,VALID,23.8676,VALID,282,VALID,0.065625,
2009-01-19, 00:57:04,VALID,1010.67,VALID,0,VALID,91.1811,VALID,0.105969,VALID,23.8889,VALID,326,VALID,0.248828,
2009-01-19, 00:58:04,VALID,1010.67,VALID,0,VALID,91.1964,VALID,0,VALID,23.8871,VALID,312,VALID,0.266797,
2009-01-19, 00:59:04,VALID,1010.65,VALID,0,VALID,91.143,VALID,0,VALID,23.9084,VALID,319,VALID,0.00585938,
2009-01-19, 01:00:04,VALID,1010.68,VALID,0,VALID,91.1354,VALID,0.105969,VALID,23.9065,VALID,319,VALID,0,
2009-01-19, 01:01:04,VALID,1010.66,VALID,0,VALID,91.0896,VALID,0,VALID,23.8871,VALID,319,VALID,0.00078125,
2009-01-19, 01:02:04,VALID,1010.67,VALID,0,VALID,90.9447,VALID,0,VALID,23.9065,VALID,294,VALID,0,
2009-01-19, 01:03:04,VALID,1010.65,VALID,0,VALID,90.8685,VALID,0,VALID,23.9065,VALID,294,VALID,0,
2009-01-19, 01:04:04,VALID,1010.64,VALID,0,VALID,90.8837,VALID,0,VALID,23.8871,VALID,291,VALID,0,
2009-01-19, 01:05:04,VALID,1010.6,VALID,0,VALID,90.9142,VALID,0,VALID,23.9065,VALID,288,VALID,0,
2009-01-19, 01:06:04,VALID,1010.6,VALID,0,VALID,90.8304,VALID,0,VALID,23.926,VALID,288,VALID,0,
2009-01-19, 01:07:04,VALID,1010.59,VALID,0,VALID,90.8075,VALID,0,VALID,23.926,VALID,290,VALID,0,
2009-01-19, 01:08:04,VALID,1010.59,VALID,0,VALID,90.8761,VALID,0,VALID,23.9473,VALID,293,VALID,0,
2009-01-19, 01:09:04,VALID,1010.56,VALID,0,VALID,90.8075,VALID,0.105969,VALID,23.926,VALID,293,VALID,0,
2009-01-19, 01:10:04,VALID,1010.52,VALID,0,VALID,90.8151,VALID,0,VALID,23.9455,VALID,300,VALID,0,
2009-01-19, 01:11:04,VALID,1010.53,VALID,0,VALID,90.8914,VALID,0,VALID,23.9278,VALID,300,VALID,0,
2009-01-19, 01:12:04,VALID,1010.54,VALID,0,VALID,91.0057,VALID,0,VALID,23.9084,VALID,300,VALID,0,
2009-01-19, 01:13:04,VALID,1010.5,VALID,0,VALID,91.0896,VALID,0,VALID,23.9084,VALID,300,VALID,0,
2009-01-19, 01:14:04,VALID,1010.46,VALID,0,VALID,91.1735,VALID,0,VALID,23.8676,VALID,300,VALID,0,
2009-01-19, 01:15:04,VALID,1010.46,VALID,0,VALID,91.1583,VALID,0,VALID,23.8481,VALID,300,VALID,0,
2009-01-19, 01:16:04,VALID,1010.44,VALID,0,VALID,91.1125,VALID,0,VALID,23.8499,VALID,298,VALID,0,
2009-01-19, 01:17:04,VALID,1010.42,VALID,0,VALID,91.0515,VALID,0,VALID,23.8304,VALID,309,VALID,0.599609,
2009-01-19, 01:18:04,VALID,1010.46,VALID,0,VALID,91.1049,VALID,0,VALID,23.8304,VALID,336,VALID,0.258594,
2009-01-19, 01:19:04,VALID,1010.41,VALID,0,VALID,91.1735,VALID,0,VALID,23.8304,VALID,334,VALID,0.411719,
2009-01-19, 01:20:04,VALID,1010.44,VALID,0,VALID,91.2116,VALID,0,VALID,23.7914,VALID,224,VALID,0.065625,
2009-01-19, 01:21:04,VALID,1010.44,VALID,0,VALID,91.2803,VALID,0,VALID,23.7914,VALID,225,VALID,0,
2009-01-19, 01:22:04,VALID,1010.44,VALID,0,VALID,91.3565,VALID,0,VALID,23.7914,VALID,225,VALID,0,
2009-01-19, 01:23:04,VALID,1010.44,VALID,0,VALID,91.4099,VALID,0,VALID,23.7507,VALID,225,VALID,0,
2009-01-19, 01:24:04,VALID,1010.46,VALID,0,VALID,91.448,VALID,0,VALID,23.7525,VALID,225,VALID,0,
2009-01-19, 01:25:04,VALID,1010.45,VALID,0,VALID,91.6158,VALID,0,VALID,23.7312,VALID,225,VALID,0,
2009-01-19, 01:26:04,VALID,1010.45,VALID,0,VALID,91.6234,VALID,0,VALID,23.6922,VALID,225,VALID,0,
2009-01-19, 01:27:04,VALID,1010.42,VALID,0,VALID,91.6768,VALID,0,VALID,23.7135,VALID,225,VALID,0,
2009-01-19, 01:28:04,VALID,1010.43,VALID,0,VALID,91.6768,VALID,0,VALID,23.7135,VALID,256,VALID,0,
2009-01-19, 01:29:04,VALID,1010.39,VALID,0,VALID,91.6768,VALID,0,VALID,23.6745,VALID,271,VALID,0,
2009-01-19, 01:30:04,VALID,1010.38,VALID,0,VALID,91.6616,VALID,0,VALID,23.6922,VALID,271,VALID,0,
2009-01-19, 01:31:04,VALID,1010.38,VALID,0,VALID,91.6768,VALID,0,VALID,23.6745,VALID,271,VALID,0,
2009-01-19, 01:32:04,VALID,1010.37,VALID,0,VALID,91.7302,VALID,0,VALID,23.655,VALID,271,VALID,0,
2009-01-19, 01:33:04,VALID,1010.33,VALID,0,VALID,91.7454,VALID,0,VALID,23.655,VALID,280,VALID,0,
2009-01-19, 01:34:04,VALID,1010.34,VALID,0,VALID,91.837,VALID,0,VALID,23.6356,VALID,300,VALID,0,
2009-01-19, 01:35:04,VALID,1010.28,VALID,0,VALID,91.898,VALID,0,VALID,23.6356,VALID,300,VALID,0,
2009-01-19, 01:36:04,VALID,1010.27,VALID,0,VALID,91.9666,VALID,0,VALID,23.5771,VALID,326,VALID,0.229687,
2009-01-19, 01:37:04,VALID,1010.24,VALID,0,VALID,92.081,VALID,0,VALID,23.5771,VALID,310,VALID,0.0957031,
2009-01-19, 01:38:04,VALID,1010.23,VALID,0,VALID,92.1954,VALID,0,VALID,23.5363,VALID,298,VALID,0.542188,
2009-01-19, 01:39:04,VALID,1010.21,VALID,0,VALID,92.203,VALID,0,VALID,23.5576,VALID,293,VALID,0.00195313,
2009-01-19, 01:40:04,VALID,1010.2,VALID,0,VALID,92.2564,VALID,0,VALID,23.5169,VALID,300,VALID,0.409766,
2009-01-19, 01:41:04,VALID,1010.22,VALID,0,VALID,92.2716,VALID,0,VALID,23.5186,VALID,309,VALID,0.265625,
2009-01-19, 01:42:04,VALID,1010.17,VALID,0,VALID,92.2869,VALID,0,VALID,23.4992,VALID,277,VALID,0.289063,
2009-01-19, 01:43:04,VALID,1010.16,VALID,0,VALID,92.2792,VALID,0,VALID,23.4992,VALID,281,VALID,0.213281,
2009-01-19, 01:44:04,VALID,1010.17,VALID,0,VALID,92.3174,VALID,0,VALID,23.4797,VALID,281,VALID,0.158203,
2009-01-19, 01:45:04,VALID,1010.13,VALID,0,VALID,92.3097,VALID,0,VALID,23.4602,VALID,281,VALID,0.00117188,
2009-01-19, 01:46:04,VALID,1010.14,VALID,0,VALID,92.3936,VALID,0,VALID,23.4407,VALID,281,VALID,0.215234,
2009-01-19, 01:47:04,VALID,1010.12,VALID,0,VALID,92.4699,VALID,0,VALID,23.4,VALID,334,VALID,0.339453,
2009-01-19, 01:48:04,VALID,1010.13,VALID,0,VALID,92.5461,VALID,0,VALID,23.4017,VALID,314,VALID,0.490234,
2009-01-19, 01:49:04,VALID,1010.1,VALID,0,VALID,92.6224,VALID,0,VALID,23.3805,VALID,285,VALID,0.321875,
2009-01-19, 01:50:04,VALID,1010.05,VALID,0,VALID,92.6529,VALID,0,VALID,23.4017,VALID,301,VALID,0.400781,
2009-01-19, 01:51:04,VALID,1010.03,VALID,0,VALID,92.5843,VALID,0,VALID,23.4017,VALID,333,VALID,0.159766,
2009-01-19, 01:52:04,VALID,1010.04,VALID,0,VALID,92.5233,VALID,0,VALID,23.4212,VALID,304,VALID,0.301562,
2009-01-19, 01:53:04,VALID,1010.02,VALID,0,VALID,92.4165,VALID,0,VALID,23.4212,VALID,306,VALID,0.238672,
2009-01-19, 01:54:04,VALID,1010,VALID,0,VALID,92.3174,VALID,0,VALID,23.4194,VALID,307,VALID,0.251953,
2009-01-19, 01:55:04,VALID,1009.98,VALID,0,VALID,92.2487,VALID,0,VALID,23.4017,VALID,318,VALID,0,
2009-01-19, 01:56:04,VALID,1009.95,VALID,0,VALID,92.1725,VALID,0,VALID,23.4017,VALID,338,VALID,0,
2009-01-19, 01:57:04,VALID,1009.94,VALID,0,VALID,92.2487,VALID,0,VALID,23.3823,VALID,338,VALID,0,
2009-01-19, 01:58:04,VALID,1009.94,VALID,0,VALID,92.4089,VALID,0,VALID,23.3628,VALID,337,VALID,0,
2009-01-19, 01:59:04,VALID,1009.93,VALID,0,VALID,92.4775,VALID,0,VALID,23.3238,VALID,337,VALID,0,
2009-01-19, 02:00:04,VALID,1009.88,VALID,0,VALID,92.5766,VALID,0,VALID,23.2831,VALID,337,VALID,0.00234375,
2009-01-19, 02:01:04,VALID,1009.88,VALID,0,VALID,92.6987,VALID,0,VALID,23.2848,VALID,337,VALID,0.404297,
2009-01-19, 02:02:04,VALID,1009.9,VALID,0,VALID,92.7902,VALID,0,VALID,23.2654,VALID,337,VALID,0.244531,
2009-01-19, 02:03:04,VALID,1009.9,VALID,0,VALID,92.9046,VALID,0,VALID,23.2654,VALID,337,VALID,0,
2009-01-19, 02:04:04,VALID,1009.89,VALID,0,VALID,92.9808,VALID,0,VALID,23.2459,VALID,335,VALID,0.0117188,
2009-01-19, 02:05:04,VALID,1009.92,VALID,0,VALID,93.0952,VALID,0,VALID,23.2459,VALID,313,VALID,0.00585938,
2009-01-19, 02:06:04,VALID,1009.9,VALID,0,VALID,93.1105,VALID,0,VALID,23.2264,VALID,313,VALID,0,
2009-01-19, 02:07:04,VALID,1009.92,VALID,0,VALID,93.1181,VALID,0,VALID,23.2264,VALID,312,VALID,0.178906,
2009-01-19, 02:08:04,VALID,1009.94,VALID,0,VALID,93.1638,VALID,0,VALID,23.2069,VALID,316,VALID,0,
2009-01-19, 02:09:04,VALID,1009.91,VALID,0,VALID,93.1867,VALID,0,VALID,23.2264,VALID,316,VALID,0.0503906,
2009-01-19, 02:10:04,VALID,1009.88,VALID,0,VALID,93.1867,VALID,0,VALID,23.2069,VALID,316,VALID,0,
2009-01-19, 02:11:04,VALID,1009.88,VALID,0,VALID,93.2325,VALID,0,VALID,23.1874,VALID,316,VALID,0,
2009-01-19, 02:12:04,VALID,1009.88,VALID,0,VALID,93.2325,VALID,0,VALID,23.2069,VALID,316,VALID,0,
2009-01-19, 02:13:04,VALID,1009.85,VALID,0,VALID,93.2172,VALID,0,VALID,23.1874,VALID,316,VALID,0,
2009-01-19, 02:14:04,VALID,1009.86,VALID,0,VALID,93.1943,VALID,0,VALID,23.1874,VALID,316,VALID,0,
2009-01-19, 02:15:04,VALID,1009.84,VALID,0,VALID,93.1333,VALID,0,VALID,23.1679,VALID,316,VALID,0,
2009-01-19, 02:16:04,VALID,1009.85,VALID,0,VALID,93.141,VALID,0,VALID,23.1485,VALID,316,VALID,0,
2009-01-19, 02:17:04,VALID,1009.84,VALID,0,VALID,93.2248,VALID,0,VALID,23.129,VALID,316,VALID,0,
2009-01-19, 02:18:04,VALID,1009.84,VALID,0,VALID,93.3392,VALID,0,VALID,23.129,VALID,316,VALID,0.0332031,
2009-01-19, 02:19:04,VALID,1009.84,VALID,0,VALID,93.4384,VALID,0,VALID,23.1095,VALID,316,VALID,0.0859375,
2009-01-19, 02:20:04,VALID,1009.85,VALID,0,VALID,93.4917,VALID,0,VALID,23.0883,VALID,316,VALID,0,
2009-01-19, 02:21:04,VALID,1009.84,VALID,0,VALID,93.5375,VALID,0,VALID,23.0883,VALID,316,VALID,0,
2009-01-19, 02:22:04,VALID,1009.84,VALID,0,VALID,93.5985,VALID,0,VALID,23.1095,VALID,316,VALID,0.0988281,
2009-01-19, 02:23:04,VALID,1009.82,VALID,0,VALID,93.6214,VALID,0,VALID,23.0688,VALID,316,VALID,0,
2009-01-19, 02:24:04,VALID,1009.83,VALID,0,VALID,93.629,VALID,0,VALID,23.0883,VALID,316,VALID,0,
2009-01-19, 02:25:04,VALID,1009.83,VALID,0,VALID,93.6366,VALID,0,VALID,23.0883,VALID,316,VALID,0,
2009-01-19, 02:26:04,VALID,1009.82,VALID,0,VALID,93.5985,VALID,0,VALID,23.09,VALID,316,VALID,0,
2009-01-19, 02:27:04,VALID,1009.82,VALID,0,VALID,93.629,VALID,0,VALID,23.1095,VALID,316,VALID,0.189063,
2009-01-19, 02:28:04,VALID,1009.81,VALID,0,VALID,93.6519,VALID,0,VALID,23.09,VALID,316,VALID,0.170703,
2009-01-19, 02:29:04,VALID,1009.82,VALID,0,VALID,93.6748,VALID,0,VALID,23.09,VALID,316,VALID,0.155469,
2009-01-19, 02:30:04,VALID,1009.78,VALID,0,VALID,93.69,VALID,0,VALID,23.09,VALID,316,VALID,0.071875,
2009-01-19, 02:31:04,VALID,1009.77,VALID,0,VALID,93.7129,VALID,0,VALID,23.09,VALID,316,VALID,0.0191406,
2009-01-19, 02:32:04,VALID,1009.77,VALID,0,VALID,93.7053,VALID,0,VALID,23.0705,VALID,316,VALID,0,
2009-01-19, 02:33:04,VALID,1009.77,VALID,0,VALID,93.7053,VALID,0,VALID,23.0511,VALID,316,VALID,0,
2009-01-19, 02:34:04,VALID,1009.75,VALID,0,VALID,93.7053,VALID,0,VALID,23.0511,VALID,316,VALID,0,
2009-01-19, 02:35:04,VALID,1009.74,VALID,0,VALID,93.751,VALID,0,VALID,23.0511,VALID,316,VALID,0.282422,
2009-01-19, 02:36:04,VALID,1009.72,VALID,0,VALID,93.812,VALID,0,VALID,23.0298,VALID,317,VALID,0,
2009-01-19, 02:37:04,VALID,1009.73,VALID,0,VALID,93.8044,VALID,0,VALID,23.0316,VALID,324,VALID,0.244141,
2009-01-19, 02:38:04,VALID,1009.71,VALID,0,VALID,93.7968,VALID,0,VALID,22.9909,VALID,324,VALID,0.243359,
2009-01-19, 02:39:04,VALID,1009.68,VALID,0,VALID,93.8044,VALID,0,VALID,22.9909,VALID,324,VALID,0.0078125,
2009-01-19, 02:40:04,VALID,1009.68,VALID,0,VALID,93.8349,VALID,0,VALID,23.0121,VALID,339,VALID,0,
2009-01-19, 02:41:04,VALID,1009.67,VALID,0,VALID,93.8425,VALID,0,VALID,22.9731,VALID,339,VALID,0,
2009-01-19, 02:42:04,VALID,1009.7,VALID,0,VALID,93.8959,VALID,0,VALID,22.9519,VALID,339,VALID,0,
2009-01-19, 02:43:04,VALID,1009.68,VALID,0,VALID,93.9417,VALID,0,VALID,22.9342,VALID,339,VALID,0,
2009-01-19, 02:44:04,VALID,1009.68,VALID,0,VALID,93.995,VALID,0,VALID,22.9342,VALID,339,VALID,0,
2009-01-19, 02:45:04,VALID,1009.69,VALID,0,VALID,94.0179,VALID,0,VALID,22.9147,VALID,339,VALID,0,
2009-01-19, 02:46:04,VALID,1009.69,VALID,0,VALID,94.0255,VALID,0,VALID,22.8935,VALID,336,VALID,0.186328,
2009-01-19, 02:47:04,VALID,1009.7,VALID,0,VALID,94.056,VALID,0,VALID,22.9147,VALID,333,VALID,0,
2009-01-19, 02:48:04,VALID,1009.66,VALID,0,VALID,94.0865,VALID,0,VALID,22.8952,VALID,333,VALID,0.18125,
2009-01-19, 02:49:04,VALID,1009.67,VALID,0,VALID,94.0942,VALID,0,VALID,22.8757,VALID,333,VALID,0.146484,
2009-01-19, 02:50:04,VALID,1009.64,VALID,0,VALID,94.1704,VALID,0,VALID,22.8757,VALID,300,VALID,0.285156,
2009-01-19, 02:51:04,VALID,1009.63,VALID,0,VALID,94.2009,VALID,0,VALID,22.8757,VALID,302,VALID,0.196484,
2009-01-19, 02:52:04,VALID,1009.63,VALID,0,VALID,94.2619,VALID,0,VALID,22.874,VALID,318,VALID,0.457422,
2009-01-19, 02:53:04,VALID,1009.61,VALID,0,VALID,94.2924,VALID,0,VALID,22.874,VALID,318,VALID,0.00234375,
2009-01-19, 02:54:04,VALID,1009.59,VALID,0,VALID,94.2696,VALID,0,VALID,22.8952,VALID,318,VALID,0.163672,
2009-01-19, 02:55:04,VALID,1009.59,VALID,0,VALID,94.2619,VALID,0,VALID,22.8952,VALID,318,VALID,0,
2009-01-19, 02:56:04,VALID,1009.61,VALID,0,VALID,94.2696,VALID,0,VALID,22.874,VALID,318,VALID,0,
2009-01-19, 02:57:04,VALID,1009.66,VALID,0,VALID,94.2696,VALID,0,VALID,22.8757,VALID,321,VALID,0.00078125,
2009-01-19, 02:58:04,VALID,1009.63,VALID,0,VALID,94.2314,VALID,0,VALID,22.874,VALID,332,VALID,0.406641,
2009-01-19, 02:59:04,VALID,1009.61,VALID,0,VALID,94.1857,VALID,0,VALID,22.874,VALID,317,VALID,0.0207031,
2009-01-19, 03:00:04,VALID,1009.64,VALID,0,VALID,94.1094,VALID,0,VALID,22.8757,VALID,338,VALID,0.286719,
2009-01-19, 03:01:04,VALID,1009.65,VALID,0,VALID,94.1704,VALID,0,VALID,22.8545,VALID,356,VALID,0.111328,
2009-01-19, 03:02:04,VALID,1009.64,VALID,0,VALID,94.1781,VALID,0,VALID,22.8562,VALID,349,VALID,0,
2009-01-19, 03:03:04,VALID,1009.65,VALID,0,VALID,94.2162,VALID,0,VALID,22.8562,VALID,314,VALID,0.186328,
2009-01-19, 03:04:04,VALID,1009.65,VALID,0,VALID,94.2314,VALID,0,VALID,22.8757,VALID,320,VALID,0,
2009-01-19, 03:05:04,VALID,1009.63,VALID,0,VALID,94.2314,VALID,0,VALID,22.8368,VALID,320,VALID,0,
2009-01-19, 03:06:04,VALID,1009.65,VALID,0,VALID,94.2467,VALID,0,VALID,22.8368,VALID,320,VALID,0,
2009-01-19, 03:07:04,VALID,1009.63,VALID,0,VALID,94.3001,VALID,0,VALID,22.8155,VALID,313,VALID,0,
2009-01-19, 03:08:04,VALID,1009.6,VALID,0,VALID,94.3077,VALID,0,VALID,22.8368,VALID,314,VALID,0,
2009-01-19, 03:09:04,VALID,1009.63,VALID,0,VALID,94.3001,VALID,0,VALID,22.8173,VALID,314,VALID,0,
2009-01-19, 03:10:04,VALID,1009.58,VALID,0,VALID,94.3382,VALID,0,VALID,22.7961,VALID,314,VALID,0.158984,
2009-01-19, 03:11:04,VALID,1009.58,VALID,0,VALID,94.3534,VALID,0,VALID,22.7961,VALID,340,VALID,0,
2009-01-19, 03:12:04,VALID,1009.57,VALID,0,VALID,94.3611,VALID,0,VALID,22.8173,VALID,339,VALID,0.114844,
2009-01-19, 03:13:04,VALID,1009.59,VALID,0,VALID,94.3687,VALID,0,VALID,22.8155,VALID,290,VALID,0.4375,
2009-01-19, 03:14:04,VALID,1009.57,VALID,0,VALID,94.3687,VALID,0,VALID,22.8368,VALID,290,VALID,0,
2009-01-19, 03:15:04,VALID,1009.59,VALID,0,VALID,94.3306,VALID,0,VALID,22.7766,VALID,301,VALID,0.176953,
2009-01-19, 03:16:04,VALID,1009.58,VALID,0,VALID,94.3382,VALID,0,VALID,22.7978,VALID,10,VALID,0.173828,
2009-01-19, 03:17:04,VALID,1009.58,VALID,0,VALID,94.3306,VALID,0,VALID,22.8173,VALID,10,VALID,0.00195313,
2009-01-19, 03:18:04,VALID,1009.56,VALID,0,VALID,94.3153,VALID,0,VALID,22.7783,VALID,10,VALID,0.271875,
2009-01-19, 03:19:04,VALID,1009.57,VALID,0,VALID,94.3382,VALID,0,VALID,22.7766,VALID,348,VALID,0.366016,
2009-01-19, 03:20:04,VALID,1009.55,VALID,0,VALID,94.3306,VALID,0,VALID,22.7571,VALID,346,VALID,0.305859,
2009-01-19, 03:21:04,VALID,1009.52,VALID,0,VALID,94.3458,VALID,0,VALID,22.7783,VALID,308,VALID,0.433984,
2009-01-19, 03:22:04,VALID,1009.51,VALID,0,VALID,94.3916,VALID,0,VALID,22.7783,VALID,308,VALID,0,
2009-01-19, 03:23:04,VALID,1009.51,VALID,0,VALID,94.3763,VALID,0,VALID,22.7783,VALID,308,VALID,0,
2009-01-19, 03:24:04,VALID,1009.54,VALID,0,VALID,94.3382,VALID,0,VALID,22.7588,VALID,308,VALID,0,
2009-01-19, 03:25:04,VALID,1009.51,VALID,0,VALID,94.3992,VALID,0,VALID,22.7783,VALID,294,VALID,0.413281,
2009-01-19, 03:26:04,VALID,1009.53,VALID,0,VALID,94.4373,VALID,0,VALID,22.7783,VALID,292,VALID,0.0121094,
2009-01-19, 03:27:04,VALID,1009.5,VALID,0,VALID,94.4068,VALID,0,VALID,22.7588,VALID,292,VALID,0.193359,
2009-01-19, 03:28:04,VALID,1009.53,VALID,0,VALID,94.4526,VALID,0,VALID,22.7978,VALID,296,VALID,0.572656,
2009-01-19, 03:29:04,VALID,1009.53,VALID,0,VALID,94.4831,VALID,0,VALID,22.7978,VALID,312,VALID,0.0398437,
2009-01-19, 03:30:04,VALID,1009.53,VALID,0,VALID,94.5136,VALID,0,VALID,22.7978,VALID,303,VALID,0.100391,
2009-01-19, 03:31:04,VALID,1009.56,VALID,0,VALID,94.4907,VALID,0,VALID,22.8368,VALID,305,VALID,0,
2009-01-19, 03:32:04,VALID,1009.55,VALID,0,VALID,94.4526,VALID,0,VALID,22.8368,VALID,305,VALID,0.201562,
2009-01-19, 03:33:04,VALID,1009.52,VALID,0,VALID,94.4373,VALID,0,VALID,22.8545,VALID,305,VALID,0.197266,
2009-01-19, 03:34:04,VALID,1009.56,VALID,0,VALID,94.4221,VALID,0,VALID,22.8562,VALID,286,VALID,0.31875,
2009-01-19, 03:35:04,VALID,1009.56,VALID,0,VALID,94.3839,VALID,0,VALID,22.9147,VALID,297,VALID,0.211719,
2009-01-19, 03:36:04,VALID,1009.58,VALID,0,VALID,94.3382,VALID,0,VALID,22.8952,VALID,307,VALID,0.353125,
2009-01-19, 03:37:04,VALID,1009.58,VALID,0,VALID,94.2619,VALID,0,VALID,22.8952,VALID,310,VALID,0.525391,
2009-01-19, 03:38:04,VALID,1009.57,VALID,0,VALID,94.1552,VALID,0,VALID,22.8757,VALID,316,VALID,0.00195313,
2009-01-19, 03:39:04,VALID,1009.57,VALID,0,VALID,94.0865,VALID,0,VALID,22.8757,VALID,325,VALID,0.405469,
2009-01-19, 03:40:04,VALID,1009.57,VALID,0,VALID,94.0255,VALID,0,VALID,22.8969,VALID,328,VALID,0,
2009-01-19, 03:41:04,VALID,1009.57,VALID,0,VALID,94.0103,VALID,0,VALID,22.8562,VALID,328,VALID,0.234766,
2009-01-19, 03:42:04,VALID,1009.52,VALID,0,VALID,93.9569,VALID,0,VALID,22.8562,VALID,328,VALID,0.0675781,
2009-01-19, 03:43:04,VALID,1009.51,VALID,0,VALID,93.9798,VALID,0,VALID,22.8562,VALID,350,VALID,0.289063,
2009-01-19, 03:44:04,VALID,1009.49,VALID,0,VALID,93.995,VALID,0,VALID,22.8155,VALID,349,VALID,0.0582031,
2009-01-19, 03:45:04,VALID,1009.44,VALID,0,VALID,93.9874,VALID,0,VALID,22.8173,VALID,349,VALID,0,
2009-01-19, 03:46:04,VALID,1009.43,VALID,0,VALID,94.0103,VALID,0,VALID,22.8173,VALID,349,VALID,0,
2009-01-19, 03:47:04,VALID,1009.43,VALID,0,VALID,94.0637,VALID,0,VALID,22.7978,VALID,348,VALID,0,
2009-01-19, 03:48:04,VALID,1009.4,VALID,0,VALID,94.0713,VALID,0,VALID,22.7571,VALID,348,VALID,0,